Location: Unspecified
(33.6682°S, 0.0000°E)
Time: 16:26:17
(UTC+00:00)

Courier 1B - Pass Details

Date: 23 June 2019
Orbit: 963 x 1209 km, 28.3° (Epoch: 19 July)

Event Time Altitude Azimuth Distance (km) Brightness Sun altitude
Exits shadow 05:59:46 - 299° (WNW) 3,849 10.2 -13.2°
Reaches altitude 10° 06:02:24 10° 304° (NW) 2,975 9.7 -12.7°
Maximum altitude 06:09:14 44° 13° (NNE) 1,435 8.7 -11.4°
Drops below altitude 10° 06:15:41 10° 83° (E) 2,811 11.3 -10.1°
Sets 06:18:25 0° 89° (E) 3,732 12.0 -9.6°
